"Pseudo-MPEC" for P10LizA

Created 2019 Jan 12 23:18:23 UT using Find_Orb

Click here for an explanation of pseudo-MPECs

 
 Astrometry: 
     P10LizA  C2019 01 09v(##h:K5-IB^[Astrometrys;yF(ZNsKI[8!!PKkLSo)S7CX+[HiF51
     P10LizA  C2019 01 09QI`MAnNCDS4K`]T9NRKT],IQd@LQqPlM#3A+0redacted;f^ykD\F51
     P10LizA  C2019 01 09hHvHrMglT=*0jax1lbQ*av(xv?c'[(p)XrU,_!:XrDhb+@NQ)Y[jF51
     P10LizA KC2019 01 103q4]TlV0R;els^jO\(?adr$R$:^k1LOfr+clickP%oKNSpj.EjLFH21
     P10LizA KC2019 01 106`T(rZ18-h2p]here7Dk-4SSoCY;*F%bluyS*[%dl=qb+]XBO#3\H21
     P10LizA KC2019 01 10UHoZ0a0cn:Ds$j6PRu31b4+yYLh@j7ul`0!@@pZC8/Zha/VrMr`3H21
     P10LizA ^C2019 01 10.39139708 29 49.723+22 30 30.40   ~1AKI 22.04GVNEOCP568
     P10LizA ^C2019 01 10.39234808 29 49.765+22 30 28.92   ~1AKI 22.02GVNEOCP568
     P10LizA ^C2019 01 10.39329608 29 49.807+22 30 27.42   ~1AKI 21.93GVNEOCP568
     P10LizA KC2019 01 12+iOEy+FsKpSj:FyNfor4:]D3eqMxBG76atu+#@*.g$Z]1$wWW%Fq291
     P10LizA KC2019 01 12^3=NOkJZnjdVWBjoTnFeKL1wiV[qKGwc[:8d_bD-,bc+T39H3$N_291
     P10LizA KC2019 01 12K.v5ij'-OCQ6O9mxTZkVnJ^-:c6:J5?XfexplanationT!V5.`X9291

Station data:
(291) LPL/Spacewatch II  (N31.961669 W111.599905)  US/Arizona.  Observers J.
   V. Scotti, R. S. McMillan. 1.8-m f/2.7 reflector + CCD.
(568) Mauna Kea  (N19.826116 W155.472200)  US/Hawaii.
(F51) Pan-STARRS 1, Haleakala  (N20.707235 W156.255910)  US/Hawaii.
   Observers N. Primak, A. Schultz, S. Watters, J. Thiel, T. Goggia. Measurer
   PS1 Science Consortium. 1.8-m Ritchey-Chrétien + CCD.
(H21) Astronomical Research Observatory, Westfield  (N39.483057 W87.968270)
   US/Illinois. 0.76-m f/3.0 astrograph + CCD.

Orbital elements:  P10LizA
   Perihelion 2019 Mar 11.245656 +/- 0.0857 TT =  5:53:44 (JD 2458553.745656)
Epoch 2019 Jan 12.0 TT = JDT 2458495.5   Earth MOID: 0.0585   Ma: 0.0527
M 340.23293975 +/- 0.6              (J2000 ecliptic)          AutoNEOCP
n   0.33937398 +/- 0.01             Peri.  239.88301 +/- 0.10
a   2.03555894 +/- 0.04             Node   298.19753 +/- 0.022
e   0.5274437 +/- 0.00931           Incl.    6.34784 +/- 0.09
P   2.90                   H 24.3   G  0.15   U  9.6  
q 0.96191617 +/- 0.000939    Q 3.10920172 +/- 0.0782
From 12 observations 2019 Jan. 9-12; mean residual 0".15
Residuals in arcseconds: 
190109 F51  .08+  .05-    190110 H21  .21-  .04-    190110 568  .01+  .04-    
190109 F51  .03-  .03-    190110 H21  .20-  .08+    190112 291  .28-  .06+    
190109 F51  .26+  .23+    190110 568  .04-  .00     190112 291  .41+  .02-    
190110 H21  .03+  .19-    190110 568  .01-  .01-    190112 291  .02-  .01+    

Ephemerides (geocentric):
Date (UTC) HH   RA              Dec         delta   r     elong  mag " sig PA
---- -- -- --  -------------   -----------  ------ ------ -----  --- ---- ---
2019 01 12 23  08 32 16.404   +21 15 55.29  .21152 1.1905 166.9 21.9 .081  80
2019 01 13 00  08 32 18.889   +21 14 35.94  .21121 1.1902 166.9 21.9 .087  74
2019 01 13 01  08 32 21.377   +21 13 16.35  .21090 1.1899 166.9 21.9 .094  69
2019 01 13 02  08 32 23.867   +21 11 56.54  .21060 1.1896 167.0 21.9 .101  65
2019 01 13 03  08 32 26.361   +21 10 36.50  .21029 1.1893 167.0 21.9 .110  61
2019 01 13 04  08 32 28.858   +21 09 16.22  .20998 1.1891 167.0 21.9 .119  57
2019 01 13 05  08 32 31.358   +21 07 55.71  .20968 1.1888 167.1 21.9 .128  54
2019 01 13 06  08 32 33.861   +21 06 34.96  .20937 1.1885 167.1 21.9 .138  52
2019 01 13 07  08 32 36.367   +21 05 13.98  .20906 1.1882 167.1 21.9 .149  49
2019 01 13 08  08 32 38.876   +21 03 52.76  .20876 1.1879 167.2 21.9 .160  47
2019 01 13 09  08 32 41.388   +21 02 31.31  .20845 1.1877 167.2 21.9 .172  46
2019 01 13 10  08 32 43.904   +21 01 09.62  .20815 1.1874 167.2 21.9 .184  44
2019 01 13 11  08 32 46.423   +20 59 47.68  .20784 1.1871 167.2 21.9 .197  42
2019 01 13 12  08 32 48.945   +20 58 25.51  .20754 1.1868 167.3 21.9 .209  41
2019 01 13 13  08 32 51.470   +20 57 03.10  .20723 1.1865 167.3 21.9 .223  40
2019 01 13 14  08 32 53.999   +20 55 40.45  .20693 1.1863 167.3 21.9 .236  39
2019 01 13 15  08 32 56.531   +20 54 17.56  .20662 1.1860 167.4 21.9 .250  38
2019 01 13 16  08 32 59.066   +20 52 54.42  .20632 1.1857 167.4 21.9 .265  37
2019 01 13 17  08 33 01.605   +20 51 31.04  .20601 1.1854 167.4 21.9 .279  36
2019 01 13 18  08 33 04.147   +20 50 07.41  .20571 1.1852 167.5 21.9 .294  35
2019 01 13 19  08 33 06.692   +20 48 43.54  .20540 1.1849 167.5 21.8 .310  35
2019 01 13 20  08 33 09.241   +20 47 19.42  .20510 1.1846 167.5 21.8 .326  34
2019 01 13 21  08 33 11.793   +20 45 55.06  .20480 1.1843 167.5 21.8 .342  34
2019 01 13 22  08 33 14.349   +20 44 30.44  .20449 1.1840 167.6 21.8 .358  33
2019 01 13 23  08 33 16.908   +20 43 05.58  .20419 1.1838 167.6 21.8 .375  32
2019 01 14 00  08 33 19.471   +20 41 40.46  .20389 1.1835 167.6 21.8 .392  32
2019 01 14 01  08 33 22.037   +20 40 15.10  .20358 1.1832 167.7 21.8 .410  32
2019 01 14 02  08 33 24.607   +20 38 49.48  .20328 1.1829 167.7 21.8 .427  31
2019 01 14 03  08 33 27.180   +20 37 23.61  .20298 1.1827 167.7 21.8 .445  31
2019 01 14 04  08 33 29.757   +20 35 57.49  .20268 1.1824 167.7 21.8 .464  30
2019 01 14 05  08 33 32.337   +20 34 31.11  .20238 1.1821 167.8 21.8 .483  30
2019 01 14 06  08 33 34.921   +20 33 04.48  .20207 1.1818 167.8 21.8 .502  30
2019 01 14 07  08 33 37.509   +20 31 37.59  .20177 1.1816 167.8 21.8 .521  29
2019 01 14 08  08 33 40.101   +20 30 10.45  .20147 1.1813 167.9 21.8 .541  29
2019 01 14 09  08 33 42.696   +20 28 43.04  .20117 1.1810 167.9 21.8 .561  29
2019 01 14 10  08 33 45.295   +20 27 15.38  .20087 1.1807 167.9 21.8 .582  28
2019 01 14 11  08 33 47.897   +20 25 47.45  .20057 1.1804 168.0 21.8 .603  28
2019 01 14 12  08 33 50.504   +20 24 19.26  .20027 1.1802 168.0 21.8 .624  28
2019 01 14 13  08 33 53.114   +20 22 50.82  .19997 1.1799 168.0 21.8 .645  28
2019 01 14 14  08 33 55.728   +20 21 22.10  .19967 1.1796 168.0 21.8 .667  27
2019 01 14 15  08 33 58.346   +20 19 53.13  .19937 1.1793 168.1 21.8 .689  27
2019 01 14 16  08 34 00.968   +20 18 23.89  .19907 1.1791 168.1 21.8 .712  27
2019 01 14 17  08 34 03.594   +20 16 54.38  .19877 1.1788 168.1 21.7 .735  27
2019 01 14 18  08 34 06.223   +20 15 24.61  .19847 1.1785 168.2 21.7 .758  27
2019 01 14 19  08 34 08.857   +20 13 54.57  .19817 1.1782 168.2 21.7 .782  26
2019 01 14 20  08 34 11.495   +20 12 24.26  .19787 1.1780 168.2 21.7 .806  26
2019 01 14 21  08 34 14.136   +20 10 53.68  .19757 1.1777 168.2 21.7 .830  26
2019 01 14 22  08 34 16.782   +20 09 22.83  .19727 1.1774 168.3 21.7 .855  26